Location: São Paulo
(23.5507°S, 46.6334°W)
Time: 10:38:40
(UTC-03:00)

Injun/Solrad 3 - Pass Details

Date: 25 February 2026
Orbit: 871 x 985 km, 66.8° (Epoch: 13 March)

Event Time Altitude Azimuth Distance (km) Brightness Sun altitude
Rises 22:06:29 0° 298° (WNW) 3,683 11.2 -44.2°
Reaches altitude 10° 22:10:00 10° 279° (W) 2,741 10.6 -44.8°
Maximum altitude 22:14:09 18° 238° (WSW) 2,224 10.3 -45.5°
Drops below altitude 10° 22:18:19 10° 197° (SSW) 2,734 10.8 -46.2°
Sets 22:21:50 0° 178° (S) 3,671 11.4 -46.7°
